Regional Weather Roundup
Issued by NWS Tampa Bay Area, FL

Current Version | Previous Version | Text Only | Print | Product List | Glossary On
Versions: 1 2 3 4 5 6 7 8 9 10 11 12 13 14 15 16 17 18 19 20 21 22 23 24 25 26 27 28 29 30 31 32 33 34 35 36 37 38 39 40 41 42 43 44 45 46 47 48 49 50
250
NZUS99 KTBW 190718
RWRTBW
Regional Weather Roundup National Weather Service Ruskin Florida
300 AM EDT MON APR 19 2021


CITY           SKY/WX    TMP DP  RH WIND       PRES   REMARKS
Cross City     CLOUDY    66  66  99 NW5       29.89S
Williston      CLOUDY    67  67  98 SW3       29.88S
Gainesville    CLOUDY    66  65  96 CALM      29.89F
Ocala          CLOUDY    68  68 100 SW7       29.89S
Crystal River  FAIR      68  66  94 CALM      29.88F
Inverness      CLOUDY    68  68 100 CALM      29.89F
Leesburg       CLOUDY    69  66  90 S7        29.88F
Orlando        TSTM      68  67  96 VRB7      29.89S FOG
Brooksville    MOCLDY    68  66  93 CALM      29.90S
Zephyrhills    MOCLDY    68  67  96 CALM      29.90F
Lakeland       MOCLDY    68  66  94 CALM      29.90F
Winter Haven   MOCLDY    70  67  90 SW3       29.90F
Bartow         CLOUDY    70  68  94 CALM      29.89F

CITY           SKY/WX    TMP DP  RH WIND       PRES   REMARKS
Tampa Intl     MOCLDY    73  68  84 CALM      29.89F
Tampa Exec     CLOUDY    72  70  94 CALM      29.90F
MacDill AFB    MOCLDY    72  70  94 CALM      29.85F
Peter O Knight MOCLDY    70  70 100 CALM      29.89F FOG
Plant City     MOCLDY    70  70 100 CALM      29.91F
Clearwater     MOCLDY    72  70  93 S3        29.88F
St Petersburg  MOCLDY    73  69  87 NW3       29.86F
Sarasota       CLOUDY    77  74  90 SW15      29.86F
Sebring        CLOUDY    77  73  87 S12       29.91S
Punta Gorda    MOCLDY    79  74  84 S12       29.90F
Ft Myers       MOCLDY    79  74  84 S8        29.90F
Ft Myers-RSW   PTCLDY    78  73  84 SW8       29.91F
Naples         MOCLDY    80  75  84 S14       29.91F

STATION/POSITION SKY/WX   TEMP WIND        PRES    VSBY
                          AIR  DIR/SP/G
                          (F)  (DEG/KT/KT) (MB)    (MI)
Keaton Beach               68  290/  9/ 11 1012.2F
Sand Key                   79  160/ 14/ 16 1013.5
039 Panama City            70  330/ 12/ 14 1013.5
036 Bayport                69  360/  4/  6 1011.9
Venice                     78  190/ 19/ 21 1011.5F
Cedar Key                  68  320/  3/  5 1011.9F

CITY           SKY/WX    TMP DP  RH WIND       PRES   REMARKS
Tallahassee    MOCLDY    63  61  93 NW5       29.89F
Daytona Beach  CLOUDY    67  65  93 S6        29.87R
Melbourne      MOCLDY    70  65  84 W3        29.89S
W Palm Beach   MOCLDY    78  70  76 S3        29.92F
Miami          PTCLDY    78  72  81 SE8       29.93F
Key West       CLOUDY    80  75  84 S13       29.93F
San Juan, PR   CLEAR     79  72  78 SE3       30.04F
Cancun, MX     MOCLDY    81  79  94 S12       29.87





USA.gov is the U.S. government's official web portal to all federal, state and local government web resources and services.